[[{"header":{"parameterUnit":"m.s-1","parameterCategory":1,"la1":30.2991,"la2":30.254,"lo1":-89.0895,"lo2":-89.0444,"dx":0.0017,"dy":0.0017,"nx":28,"ny":28,"refTime":"2022-12-13T15:00:00:Z","depth":0,"parameterNumber":2,"parameterNumberName":"U-component_of_WINDS"},"data":[0,0,0,0,0,0,0,0,0,0,0,0,0,0,0,0,0,0,0,0,0,0,0,0,0,0,0,0,0,0,0,0,0,0,0,0,0,0,0,0,0,0,0,0,0,0,0,0,0,0,0,0,0,0,0,0,0,0,1.3843,1.3842,0,1.3775,1.3774,1.3773,1.3722,1.3721,1.3721,1.372,1.365,1.3648,1.3647,0,0,0,0,0,0,0,0,0,0,0,0,0,1.3929,1.3928,1.3843,1.3842,1.3841,1.3775,1.3774,1.3773,1.3722,1.3721,1.3721,1.372,1.365,1.3649,1.3647,0,0,0,0,0,0,0,0,0,0,0,0,0,1.3879,1.3927,1.3843,1.3808,1.3804,1.3775,1.3774,1.3773,1.3722,1.3721,1.372,1.372,1.3651,1.3649,1.3647,1.3647,0,0,1.364,1.3639,0,0,0,0,0,0,0,0,1.3882,1.3876,1.3814,1.381,1.3806,1.3756,1.3778,1.3731,1.3722,1.3753,1.372,1.3719,1.3686,1.3681,1.3669,1.3644,1.3641,1.364,1.3639,1.3638,1.3637,0,0,0,0,0,0,0,1.3886,1.3879,1.3816,1.3813,1.3808,1.3795,1.3787,1.3769,1.3724,1.375,1.3746,1.3739,1.3683,1.3672,1.3667,1.364,1.364,1.3638,1.3637,1.3636,1.3612,1.3613,0,0,0,0,0,0,1.3895,1.3882,1.3818,1.3814,1.3843,1.3794,1.3786,1.3773,1.3724,1.3716,1.374,1.3737,1.3676,1.367,1.3665,1.3663,1.3638,1.3636,1.3634,1.3612,1.3613,1.3613,0,0,0,0,0,0,1.3897,1.389,1.3821,1.3847,1.3837,1.3794,1.378,1.3772,1.376,1.3716,1.3708,1.3736,1.3675,1.3668,1.3652,1.3659,1.3635,1.3633,1.3611,1.3612,1.3613,1.3659,0,0,0,0,0,0,1.39,1.3891,1.389,1.3847,1.3836,1.381,1.378,1.3771,1.3756,1.3752,1.371,1.3703,1.3674,1.3656,1.365,1.3656,1.3631,1.361,1.3611,1.3613,1.3656,1.3661,1.3665,0,0,0,0,0,1.3903,1.3906,1.3891,1.3883,1.3835,1.381,1.3804,1.377,1.3757,1.3756,1.3729,1.3704,1.366,1.3655,1.3648,1.3653,1.361,1.3611,1.3613,1.3654,1.366,1.3665,0,0,0,0,0,0,1.395,1.3899,1.3882,1.3871,1.3845,1.3802,1.38,1.3777,1.3755,1.3752,1.3711,1.3702,1.3691,1.367,1.3666,1.3652,1.3632,1.3632,1.3666,1.3671,1.3675,1.368,1.3629,0,0,0,0,0,1.3959,1.3944,1.39,1.3894,1.3883,1.3844,1.3832,1.3808,1.378,1.3769,1.374,1.3713,1.3693,1.3681,1.366,1.3653,1.3644,1.3654,1.3658,1.3662,1.3663,1.3658,1.3662,1.3618,1.3618,1.3618,0,0,1.3978,1.3948,1.3941,1.3903,1.3881,1.3865,1.3835,1.382,1.3808,1.3766,1.375,1.3728,1.3696,1.3685,1.3679,1.3667,1.3673,1.3664,1.3667,1.3666,1.366,1.3665,1.3668,1.3619,1.3619,1.3619,0,0,1.4004,1.398,1.3973,1.3951,1.3918,1.3892,1.3891,1.385,1.3834,1.3817,1.3786,1.3772,1.3738,1.3716,1.3701,1.3721,1.3698,1.3715,1.3738,1.3735,1.3738,1.3741,1.3749,1.3752,1.3716,1.3716,1.3716,0,1.4031,1.4007,1.3972,1.3959,1.3944,1.3906,1.3899,1.388,1.3841,1.3831,1.3819,1.3777,1.3753,1.3737,1.3742,1.373,1.3728,1.372,1.3741,1.3743,1.3745,1.3752,1.3755,1.3719,1.3718,1.3718,1.3718,0,1.4043,1.4027,1.4025,1.399,1.3974,1.3964,1.3928,1.3917,1.3895,1.3871,1.3854,1.3824,1.3797,1.3791,1.3769,1.3772,1.3767,1.3748,1.3727,1.3753,1.3758,1.376,1.3722,1.3721,1.372,1.372,0,0,1.4096,1.4042,1.4042,1.4026,1.3987,1.3974,1.3962,1.3936,1.3927,1.3902,1.3892,1.3865,1.3848,1.3831,1.3807,1.3804,1.3822,1.3785,1.3784,1.3794,1.3824,1.3838,1.3842,1.3806,1.3807,1.3807,1.3827,0,1.4116,1.4094,1.4063,1.4052,1.4037,1.4001,1.3991,1.3966,1.3944,1.3928,1.3902,1.3884,1.3863,1.3853,1.3848,1.3821,1.3827,1.3819,1.3797,1.3796,1.3806,1.3844,1.3859,1.3879,1.3829,1.3829,1.3829,0,1.4137,1.4115,1.4102,1.4065,1.4057,1.4049,1.4023,1.4008,1.398,1.3963,1.3945,1.3919,1.3906,1.3887,1.3868,1.3863,1.3852,1.3838,1.3838,1.3835,1.3814,1.3842,1.3885,1.3888,1.3832,1.3832,1.3832,0,1.4178,1.4144,1.4133,1.412,1.4076,1.4071,1.4053,1.4024,1.401,1.3987,1.3978,1.3955,1.3941,1.3924,1.3892,1.3881,1.3877,1.3855,1.3863,1.3864,1.3864,1.3864,1.3905,1.3857,1.3857,1.3857,1.3857,0,1.4204,1.4197,1.415,1.4143,1.4135,1.41,1.4093,1.4071,1.4046,1.4034,1.4001,1.3991,1.395,1.3935,1.391,1.3899,1.3893,1.3879,1.3873,1.3882,1.3884,1.3875,1.3872,1.3858,1.3857,1.3857,1.3857,0,1.4247,1.4216,1.4201,1.4161,1.4151,1.4147,1.4113,1.4105,1.4081,1.4066,1.4061,1.4023,1.4003,1.397,1.3941,1.3925,1.3918,1.3907,1.3928,1.3924,1.3934,1.3934,1.397,1.3973,1.3924,1.3924,1.3924,0,1.4266,1.426,1.4221,1.4211,1.4194,1.4178,1.4164,1.4129,1.4117,1.4084,1.408,1.4058,1.4039,1.401,1.398,1.3957,1.3945,1.396,1.3942,1.3952,1.3946,1.3947,1.3946,1.3964,1.3965,1.3965,1.3966,0,1.4303,1.4288,1.4269,1.4246,1.4231,1.4211,1.4189,1.4183,1.4143,1.4131,1.4111,1.4096,1.4067,1.4046,1.4019,1.4,1.3977,1.3972,1.3973,1.3982,1.3995,1.3988,1.394,1.3971,1.3971,1.397,1.397,1.397,1.4334,1.4328,1.43,1.4281,1.4261,1.4242,1.4232,1.4208,1.4191,1.4164,1.4145,1.4127,1.4099,1.4061,1.4044,1.4029,1.4018,1.4019,1.4019,1.402,1.4024,1.3997,1.4024,1.4024,1.4024,1.4023,1.4023,0,1.4369,1.435,1.4333,1.4304,1.4289,1.4269,1.4244,1.4233,1.4218,1.4194,1.4176,1.4154,1.4134,1.4102,1.408,1.4074,1.4063,1.4069,1.4069,1.4065,1.4035,1.4037,1.4079,1.4079,1.4079,1.4079,1.4079,1.4079,1.4386,1.4375,1.4356,1.4335,1.4315,1.4298,1.4285,1.4268,1.4249,1.4225,1.4209,1.4189,1.4162,1.4137,1.4118,1.4109,1.4103,1.4113,1.4101,1.4073,1.4067,1.4063,1.4064,1.4112,1.4112,1.4133,1.4133,1.4133]},{"header":{"parameterUnit":"m.s-1","parameterCategory":1,"la1":30.2991,"la2":30.254,"lo1":-89.0895,"lo2":-89.0444,"dx":0.0017,"dy":0.0017,"nx":28,"ny":28,"refTime":"2022-12-13T15:00:00:Z","depth":0,"parameterNumber":3,"parameterNumberName":"V-component_of_WINDS"},"data":[0,0,0,0,0,0,0,0,0,0,0,0,0,0,0,0,0,0,0,0,0,0,0,0,0,0,0,0,0,0,0,0,0,0,0,0,0,0,0,0,0,0,0,0,0,0,0,0,0,0,0,0,0,0,0,0,0,0,6.8173,6.8173,0,6.82,6.8201,6.8201,6.8203,6.8203,6.8203,6.8202,6.823,6.8231,6.8232,0,0,0,0,0,0,0,0,0,0,0,0,0,6.8125,6.8126,6.8173,6.8173,6.8174,6.82,6.8201,6.8201,6.8203,6.8203,6.8202,6.8202,6.8229,6.8231,6.8232,0,0,0,0,0,0,0,0,0,0,0,0,0,6.8149,6.8127,6.8173,6.8178,6.8179,6.82,6.8201,6.8201,6.8203,6.8203,6.8202,6.8202,6.8229,6.823,6.8232,6.825,0,0,6.8237,6.8237,0,0,0,0,0,0,0,0,6.8147,6.8151,6.8177,6.8177,6.8178,6.8198,6.8194,6.8218,6.8203,6.8194,6.8202,6.8202,6.8219,6.8222,6.8228,6.8252,6.8253,6.8237,6.8238,6.8238,6.8239,0,0,0,0,0,0,0,6.8146,6.8149,6.8184,6.8177,6.8178,6.818,6.8183,6.8199,6.8209,6.8195,6.8195,6.8198,6.822,6.8226,6.8228,6.8253,6.8237,6.8238,6.8239,6.8239,6.83,6.8301,0,0,0,0,0,0,6.8143,6.8148,6.8183,6.8185,6.8162,6.8181,6.8184,6.8192,6.8209,6.8211,6.8199,6.8198,6.8224,6.8227,6.8229,6.8256,6.8238,6.824,6.8241,6.83,6.83,6.8301,0,0,0,0,0,0,6.8142,6.8146,6.8182,6.8166,6.8171,6.8182,6.8191,6.8193,6.8199,6.8212,6.8214,6.8203,6.8224,6.8227,6.8247,6.8257,6.824,6.8242,6.8299,6.83,6.8301,6.8307,0,0,0,0,0,0,6.8141,6.8146,6.8151,6.8167,6.8172,6.8197,6.8192,6.8194,6.8202,6.8202,6.8216,6.8218,6.8224,6.8244,6.8248,6.8259,6.8243,6.8298,6.8299,6.83,6.8306,6.8308,6.831,0,0,0,0,0,6.8139,6.815,6.8152,6.8156,6.8179,6.8198,6.8201,6.8207,6.8203,6.821,6.8219,6.8218,6.8255,6.8246,6.8251,6.8262,6.8297,6.8299,6.83,6.8305,6.8308,6.831,0,0,0,0,0,0,6.8134,6.8152,6.8154,6.817,6.8183,6.8198,6.8206,6.8209,6.8222,6.8221,6.8228,6.8231,6.8252,6.8258,6.8248,6.8284,6.8276,6.8279,6.8278,6.8281,6.8283,6.8281,6.8244,0,0,0,0,0,6.8135,6.8148,6.8164,6.8177,6.8183,6.8194,6.8202,6.8207,6.8219,6.8224,6.8234,6.8247,6.8263,6.8272,6.8286,6.8308,6.8313,6.8318,6.832,6.8322,6.8324,6.8341,6.8345,6.8306,6.8306,6.8306,0,0,6.8137,6.8149,6.8156,6.8177,6.8186,6.8202,6.8198,6.8212,6.8225,6.8226,6.8246,6.8255,6.827,6.8292,6.8302,6.8298,6.8336,6.8324,6.8325,6.8326,6.8343,6.8347,6.835,6.8308,6.8307,6.8307,0,0,6.8149,6.8157,6.8172,6.8184,6.82,6.8208,6.8212,6.8228,6.8235,6.8255,6.8259,6.8274,6.8298,6.8311,6.832,6.8344,6.8346,6.8349,6.8359,6.8376,6.8379,6.8382,6.8394,6.8398,6.8351,6.8351,6.8351,0,6.8148,6.8171,6.8179,6.8195,6.8206,6.8211,6.8228,6.8238,6.8258,6.8266,6.8263,6.8298,6.8308,6.8336,6.8343,6.8349,6.8356,6.8347,6.8378,6.8381,6.8384,6.8395,6.84,6.8351,6.8351,6.8351,6.8351,0,6.8172,6.8188,6.8198,6.822,6.8232,6.8248,6.8261,6.8272,6.8278,6.8287,6.8311,6.8325,6.8344,6.8351,6.8354,6.8381,6.8379,6.8376,6.8369,6.8388,6.8399,6.8403,6.8352,6.8352,6.8352,6.8352,0,0,6.8177,6.8208,6.8211,6.8224,6.8246,6.8259,6.8278,6.8299,6.831,6.8325,6.8343,6.8368,6.8368,6.8379,6.8384,6.8399,6.8423,6.8396,6.8396,6.8403,6.8458,6.8461,6.8465,6.8424,6.8425,6.8426,6.8458,0,6.8192,6.8226,6.8237,6.8265,6.8283,6.8291,6.8308,6.8325,6.8336,6.8353,6.8366,6.8384,6.8381,6.8388,6.8403,6.8417,6.8434,6.8414,6.8443,6.8444,6.844,6.8471,6.8472,6.8501,6.8462,6.8463,6.8463,0,6.8213,6.8233,6.8263,6.8289,6.8296,6.8311,6.8335,6.8351,6.8372,6.8379,6.8395,6.8401,6.8425,6.8417,6.8451,6.8437,6.8451,6.846,6.8461,6.8464,6.8455,6.8477,6.851,6.8515,6.8469,6.8469,6.8468,0,6.8218,6.8251,6.8275,6.8285,6.8314,6.8326,6.8338,6.8359,6.8373,6.8394,6.8404,6.8427,6.8439,6.8458,6.8472,6.8465,6.8507,6.8499,6.8516,6.8516,6.8524,6.8523,6.8562,6.853,6.853,6.853,6.853,0,6.8234,6.8253,6.8278,6.8293,6.8317,6.8331,6.8354,6.8368,6.8387,6.8407,6.8416,6.8434,6.8451,6.8472,6.8484,6.8513,6.8518,6.8526,6.8529,6.8526,6.8526,6.8535,6.8534,6.8531,6.8531,6.8531,6.853,0,6.8242,6.8258,6.8286,6.8314,6.8322,6.8338,6.8362,6.8379,6.8393,6.8418,6.8425,6.8446,6.8473,6.849,6.8522,6.853,6.8564,6.8565,6.8557,6.8558,6.8576,6.8575,6.8622,6.8631,6.8592,6.8592,6.8593,0,6.8251,6.8267,6.8298,6.8313,6.8326,6.8349,6.8365,6.8381,6.8398,6.8427,6.8441,6.8469,6.8492,6.8535,6.8554,6.8581,6.8585,6.86,6.8588,6.8587,6.8588,6.8588,6.8592,6.8601,6.8602,6.8602,6.8602,0,6.8268,6.8277,6.8299,6.8327,6.8346,6.8368,6.839,6.8401,6.8423,6.8442,6.847,6.8489,6.8525,6.8554,6.8584,6.8599,6.8606,6.8606,6.8612,6.8609,6.8606,6.8611,6.8564,6.8605,6.8604,6.8604,6.8604,6.8604,6.8278,6.8295,6.8321,6.8347,6.8367,6.8389,6.8407,6.8426,6.845,6.8482,6.8491,6.8522,6.8549,6.8591,6.8607,6.8633,6.8631,6.8639,6.8641,6.8643,6.8645,6.8601,6.8639,6.8639,6.8638,6.8638,6.8638,0,6.8297,6.8316,6.834,6.8373,6.8395,6.8401,6.8428,6.8446,6.8474,6.8499,6.8523,6.8559,6.8589,6.8614,6.8645,6.8662,6.8666,6.867,6.8669,6.8674,6.8644,6.8637,6.8667,6.8667,6.8667,6.8667,6.8667,6.8667,6.8309,6.8339,6.8353,6.8395,6.8414,6.8446,6.8461,6.8483,6.8504,6.8544,6.857,6.8586,6.8613,6.8647,6.8677,6.8684,6.8696,6.87,6.8707,6.8678,6.8675,6.8672,6.8666,6.8702,6.8702,6.8736,6.8736,6.8736]}]]